Location: Alafon
(8.4500°N, 4.2333°E)
Time: 17:32:08
(UTC+00:00)

deb Explorer IX - Pass Details

Date: 24 July 2021
Orbit: 545 x 1091 km, 38.8° (Epoch: 20 September)

Event Time Altitude Azimuth Distance (km) Brightness Sun altitude
Rises 11:33:55 0° 204° (SSW) 2,823 ? 78.1°
Reaches altitude 10° 11:36:28 10° 189° (S) 1,988 ? 78.3°
Maximum altitude 11:40:09 24° 135° (SE) 1,399 ? 78.5°
Drops below altitude 10° 11:44:15 10° 83° (E) 2,238 ? 78.6°
Sets 11:47:18 0° 69° (ENE) 3,275 ? 78.7°
